Wetterdaten: Mittwoch, 20.04.2016
Datum Zeit Auen-Temp. Temp gefhlt Luftfeuchte Luftdruck Regen Wind Richtung Richtung Sonnenschein Taupunkt Windben
20.04.2016 00:00 5,2 C 5,2 C 76 % 1024,9 hPa 0,0 mm 0,3 km/h (0 Bft) S-SO 157 0 min 1,3 C 0,0 km/h (0 Bft)
20.04.2016 00:05 5,2 C 5,2 C 76 % 1024,9 hPa 0,0 mm 0,0 km/h (0 Bft) S-SO 157 0 min 1,3 C 0,0 km/h (0 Bft)
20.04.2016 00:10 5,1 C 5,1 C 76 % 1024,7 hPa 0,0 mm 0,0 km/h (0 Bft) S 180 0 min 1,2 C 0,0 km/h (0 Bft)
20.04.2016 00:15 5,1 C 5,1 C 77 % 1024,7 hPa 0,0 mm 0,6 km/h (0 Bft) SO 135 0 min 1,4 C 0,0 km/h (0 Bft)
20.04.2016 00:20 5,1 C 5,1 C 77 % 1024,7 hPa 0,0 mm 0,6 km/h (0 Bft) S-SO 157 0 min 1,4 C 0,0 km/h (0 Bft)
20.04.2016 00:25 5,1 C 5,1 C 77 % 1024,7 hPa 0,0 mm 0,0 km/h (0 Bft) O-NO 67 0 min 1,4 C 0,0 km/h (0 Bft)
20.04.2016 00:30 5,1 C 5,0 C 78 % 1024,8 hPa 0,0 mm 0,0 km/h (0 Bft) O 90 0 min 1,6 C 0,0 km/h (0 Bft)
20.04.2016 00:35 5,0 C 4,8 C 78 % 1024,8 hPa 0,0 mm 0,0 km/h (0 Bft) S 180 0 min 1,5 C 0,0 km/h (0 Bft)
20.04.2016 00:40 4,9 C 4,7 C 78 % 1024,8 hPa 0,0 mm 0,0 km/h (0 Bft) O-SO 112 0 min 1,4 C 0,0 km/h (0 Bft)
20.04.2016 00:45 4,7 C 4,5 C 79 % 1024,8 hPa 0,0 mm 0,0 km/h (0 Bft) SO 135 0 min 1,4 C 0,0 km/h (0 Bft)
20.04.2016 00:50 4,7 C 4,5 C 79 % 1024,6 hPa 0,0 mm 0,0 km/h (0 Bft) S-SO 157 0 min 1,4 C 0,0 km/h (0 Bft)
20.04.2016 00:55 4,4 C 4,1 C 80 % 1024,6 hPa 0,0 mm 0,0 km/h (0 Bft) S-SO 157 0 min 1,3 C 0,0 km/h (0 Bft)
20.04.2016 01:00 3,9 C 3,8 C 79 % 1024,6 hPa 0,0 mm 0,0 km/h (0 Bft) W-SW 247 0 min 0,6 C 0,0 km/h (0 Bft)
20.04.2016 01:05 3,9 C 3,6 C 80 % 1024,6 hPa 0,0 mm 0,0 km/h (0 Bft) S 180 0 min 0,8 C 0,0 km/h (0 Bft)
20.04.2016 01:10 3,9 C 3,5 C 80 % 1024,6 hPa 0,0 mm 0,0 km/h (0 Bft) S-SO 157 0 min 0,8 C 0,0 km/h (0 Bft)
20.04.2016 01:15 3,8 C 3,6 C 79 % 1024,6 hPa 0,0 mm 0,3 km/h (0 Bft) SO 135 0 min 0,5 C 0,0 km/h (0 Bft)
20.04.2016 01:20 3,8 C 3,7 C 79 % 1024,6 hPa 0,0 mm 0,3 km/h (0 Bft) O-NO 67 0 min 0,5 C 0,0 km/h (0 Bft)
20.04.2016 01:25 3,8 C 3,5 C 79 % 1024,6 hPa 0,0 mm 0,0 km/h (0 Bft) S-SO 157 0 min 0,5 C 0,0 km/h (0 Bft)
20.04.2016 01:30 3,8 C 3,5 C 79 % 1024,5 hPa 0,0 mm 0,0 km/h (0 Bft) S-SO 157 0 min 0,5 C 0,0 km/h (0 Bft)
20.04.2016 01:35 3,3 C 3,0 C 81 % 1024,5 hPa 0,0 mm 0,3 km/h (0 Bft) S-SO 157 0 min 0,4 C 0,0 km/h (0 Bft)
20.04.2016 01:38 3,3 C 3,0 C 81 % 1024,5 hPa 0,0 mm 0,3 km/h (0 Bft) S-SO 157 0 min 0,4 C 0,0 km/h (0 Bft)
20.04.2016 01:40 3,0 C 2,8 C 79 % 1024,5 hPa 0,0 mm 0,9 km/h (0 Bft) S-SO 157 0 min -0,3 C 3,0 km/h (1 Bft)
20.04.2016 01:45 2,9 C 2,6 C 82 % 1024,5 hPa 0,0 mm 1,2 km/h (1 Bft) S-SO 157 0 min 0,1 C 0,0 km/h (0 Bft)
20.04.2016 01:50 2,8 C 2,5 C 82 % 1024,7 hPa 0,0 mm 1,2 km/h (1 Bft) S 180 0 min 0,0 C 0,0 km/h (0 Bft)
20.04.2016 01:55 2,6 C 2,6 C 81 % 1024,7 hPa 0,0 mm 1,8 km/h (1 Bft) S-SO 157 0 min -0,3 C 6,6 km/h (2 Bft)
20.04.2016 02:00 2,8 C 2,7 C 81 % 1024,7 hPa 0,0 mm 2,1 km/h (1 Bft) S-SO 157 0 min -0,1 C 0,0 km/h (0 Bft)
20.04.2016 02:05 2,8 C 2,7 C 82 % 1024,7 hPa 0,0 mm 0,3 km/h (0 Bft) S-SO 157 0 min 0,0 C 0,0 km/h (0 Bft)
20.04.2016 02:10 2,8 C 2,8 C 82 % 1024,7 hPa 0,0 mm 0,0 km/h (0 Bft) S-SO 157 0 min 0,0 C 0,0 km/h (0 Bft)
20.04.2016 02:15 3,2 C 3,0 C 83 % 1024,7 hPa 0,0 mm 0,3 km/h (0 Bft) S-SO 157 0 min 0,6 C 0,0 km/h (0 Bft)
20.04.2016 02:20 3,2 C 3,0 C 81 % 1024,7 hPa 0,0 mm 0,9 km/h (0 Bft) S 180 0 min 0,3 C 3,9 km/h (1 Bft)
20.04.2016 02:25 3,2 C 3,0 C 83 % 1024,7 hPa 0,0 mm 1,5 km/h (1 Bft) NO 45 0 min 0,6 C 0,0 km/h (0 Bft)
20.04.2016 02:30 3,2 C 3,0 C 83 % 1024,4 hPa 0,0 mm 1,5 km/h (1 Bft) O-NO 67 0 min 0,6 C 0,0 km/h (0 Bft)
20.04.2016 02:35 2,8 C 2,5 C 83 % 1024,4 hPa 0,0 mm 0,0 km/h (0 Bft) SW 225 0 min 0,2 C 0,0 km/h (0 Bft)
20.04.2016 02:40 2,9 C 2,6 C 84 % 1024,4 hPa 0,0 mm 0,0 km/h (0 Bft) O-SO 112 0 min 0,5 C 0,0 km/h (0 Bft)
20.04.2016 02:45 2,8 C 2,4 C 84 % 1024,4 hPa 0,0 mm 0,0 km/h (0 Bft) S-SO 157 0 min 0,4 C 0,0 km/h (0 Bft)
20.04.2016 02:50 2,8 C 2,4 C 84 % 1024,3 hPa 0,0 mm 0,0 km/h (0 Bft) O-NO 67 0 min 0,4 C 0,0 km/h (0 Bft)
20.04.2016 02:55 2,7 C 2,2 C 85 % 1024,3 hPa 0,0 mm 0,0 km/h (0 Bft) NO 45 0 min 0,4 C 0,0 km/h (0 Bft)
20.04.2016 03:00 2,5 C 2,1 C 85 % 1024,3 hPa 0,0 mm 0,0 km/h (0 Bft) O-SO 112 0 min 0,2 C 0,0 km/h (0 Bft)
20.04.2016 03:05 2,5 C 2,1 C 85 % 1024,3 hPa 0,0 mm 0,0 km/h (0 Bft) SO 135 0 min 0,2 C 0,0 km/h (0 Bft)
20.04.2016 03:10 2,7 C 2,2 C 85 % 1024,3 hPa 0,0 mm 0,0 km/h (0 Bft) O 90 0 min 0,4 C 0,0 km/h (0 Bft)
20.04.2016 03:15 2,3 C 1,9 C 85 % 1024,3 hPa 0,0 mm 0,0 km/h (0 Bft) NO 45 0 min 0,0 C 0,0 km/h (0 Bft)
20.04.2016 03:20 2,3 C 1,9 C 85 % 1024,3 hPa 0,0 mm 0,0 km/h (0 Bft) O-SO 112 0 min 0,0 C 0,0 km/h (0 Bft)
20.04.2016 03:25 2,2 C 1,8 C 85 % 1024,3 hPa 0,0 mm 0,0 km/h (0 Bft) O-SO 112 0 min -0,1 C 0,0 km/h (0 Bft)
20.04.2016 03:30 2,3 C 1,8 C 85 % 1024,4 hPa 0,0 mm 0,0 km/h (0 Bft) O 90 0 min 0,0 C 0,0 km/h (0 Bft)
20.04.2016 03:35 2,1 C 1,7 C 85 % 1024,4 hPa 0,0 mm 0,0 km/h (0 Bft) N-NW 337 0 min -0,2 C 0,0 km/h (0 Bft)
20.04.2016 03:40 2,1 C 1,7 C 85 % 1024,4 hPa 0,0 mm 0,0 km/h (0 Bft) S 180 0 min -0,2 C 0,0 km/h (0 Bft)
20.04.2016 03:45 2,1 C 1,6 C 85 % 1024,4 hPa 0,0 mm 0,0 km/h (0 Bft) SW 225 0 min -0,2 C 0,0 km/h (0 Bft)
20.04.2016 03:50 2,1 C 1,6 C 85 % 1024,2 hPa 0,0 mm 0,0 km/h (0 Bft) S-SO 157 0 min -0,2 C 0,0 km/h (0 Bft)
20.04.2016 03:55 1,8 C 1,3 C 86 % 1024,2 hPa 0,0 mm 0,0 km/h (0 Bft) N-NO 22 0 min -0,3 C 0,0 km/h (0 Bft)
20.04.2016 04:00 1,5 C 1,1 C 85 % 1024,2 hPa 0,0 mm 0,0 km/h (0 Bft) N-NO 22 0 min -0,7 C 0,0 km/h (0 Bft)
20.04.2016 04:05 1,2 C 0,8 C 85 % 1024,2 hPa 0,0 mm 0,0 km/h (0 Bft) O-NO 67 0 min -1,0 C 0,0 km/h (0 Bft)
20.04.2016 04:10 1,2 C 0,8 C 85 % 1024,2 hPa 0,0 mm 0,0 km/h (0 Bft) O 90 0 min -1,0 C 0,0 km/h (0 Bft)
20.04.2016 04:15 0,9 C 0,5 C 85 % 1024,2 hPa 0,0 mm 0,0 km/h (0 Bft) NO 45 0 min -1,3 C 0,0 km/h (0 Bft)
20.04.2016 04:20 0,9 C 0,4 C 85 % 1024,2 hPa 0,0 mm 0,0 km/h (0 Bft) NO 45 0 min -1,3 C 0,0 km/h (0 Bft)
20.04.2016 04:25 1,3 C 0,6 C 86 % 1024,2 hPa 0,0 mm 0,0 km/h (0 Bft) SW 225 0 min -0,8 C 0,0 km/h (0 Bft)
20.04.2016 04:30 1,4 C 0,7 C 86 % 1024,2 hPa 0,0 mm 0,0 km/h (0 Bft) S-SO 157 0 min -0,7 C 0,0 km/h (0 Bft)
20.04.2016 04:35 1,4 C 0,8 C 87 % 1024,2 hPa 0,0 mm 1,8 km/h (1 Bft) SW 225 0 min -0,5 C 8,9 km/h (2 Bft)
20.04.2016 04:38 0,0 C 0,8 C 87 % 1024,2 hPa 0,0 mm 2,1 km/h (1 Bft) S-SO 157 0 min -1,9 C 0,0 km/h (0 Bft)
20.04.2016 04:39 0,0 C 0,8 C 87 % 1024,2 hPa 0,0 mm 2,1 km/h (1 Bft) S-SO 157 0 min -1,9 C 0,0 km/h (0 Bft)
20.04.2016 04:40 0,0 C 0,8 C 87 % 1024,2 hPa 0,0 mm 2,1 km/h (1 Bft) S-SO 157 0 min -1,9 C 0,0 km/h (0 Bft)
20.04.2016 04:45 0,0 C 0,5 C 87 % 1024,2 hPa 0,0 mm 0,6 km/h (0 Bft) NO 45 0 min -1,9 C 0,0 km/h (0 Bft)
20.04.2016 04:50 0,0 C 0,4 C 87 % 1024,1 hPa 0,0 mm 0,3 km/h (0 Bft) O-NO 67 0 min -1,9 C 0,0 km/h (0 Bft)
20.04.2016 04:55 0,0 C 0,0 C 86 % 1024,1 hPa 0,0 mm 0,0 km/h (0 Bft) W-NW 292 0 min -2,1 C 0,0 km/h (0 Bft)
20.04.2016 05:00 0,0 C -0,2 C 86 % 1024,1 hPa 0,0 mm 0,0 km/h (0 Bft) W-NW 292 0 min -2,1 C 0,0 km/h (0 Bft)
20.04.2016 05:05 0,0 C -0,2 C 86 % 1024,1 hPa 0,0 mm 0,0 km/h (0 Bft) S-SO 157 0 min -2,1 C 0,0 km/h (0 Bft)
20.04.2016 05:10 0,0 C 0,1 C 87 % 1024,2 hPa 0,0 mm 0,0 km/h (0 Bft) O-SO 112 0 min -1,9 C 0,0 km/h (0 Bft)
20.04.2016 05:15 0,0 C 0,2 C 88 % 1024,2 hPa 0,0 mm 0,3 km/h (0 Bft) S-SO 157 0 min -1,7 C 0,0 km/h (0 Bft)
20.04.2016 05:20 0,0 C 0,3 C 88 % 1024,2 hPa 0,0 mm 0,3 km/h (0 Bft) SO 135 0 min -1,7 C 0,0 km/h (0 Bft)
20.04.2016 05:25 0,0 C 0,3 C 89 % 1024,2 hPa 0,0 mm 0,0 km/h (0 Bft) SO 135 0 min -1,6 C 0,0 km/h (0 Bft)
20.04.2016 05:30 0,0 C 0,2 C 89 % 1024,2 hPa 0,0 mm 0,0 km/h (0 Bft) S-SO 157 0 min -1,6 C 0,0 km/h (0 Bft)
20.04.2016 05:35 0,0 C -0,1 C 88 % 1024,2 hPa 0,0 mm 0,0 km/h (0 Bft) SO 135 0 min -1,7 C 0,0 km/h (0 Bft)
20.04.2016 05:40 0,0 C 0,0 C 89 % 1024,2 hPa 0,0 mm 0,0 km/h (0 Bft) S 180 0 min -1,6 C 3,6 km/h (1 Bft)
20.04.2016 05:45 0,0 C 0,2 C 89 % 1024,2 hPa 0,0 mm 0,6 km/h (0 Bft) N-NO 22 0 min -1,6 C 0,0 km/h (0 Bft)
20.04.2016 05:50 0,0 C 0,0 C 89 % 1024,3 hPa 0,0 mm 0,9 km/h (0 Bft) NO 45 0 min -1,6 C 3,0 km/h (1 Bft)
20.04.2016 05:55 0,0 C 0,1 C 89 % 1024,3 hPa 0,0 mm 0,9 km/h (0 Bft) W-NW 292 0 min -1,6 C 0,0 km/h (0 Bft)
20.04.2016 06:00 0,0 C -0,2 C 89 % 1024,3 hPa 0,0 mm 0,3 km/h (0 Bft) N-NO 22 0 min -1,6 C 0,0 km/h (0 Bft)
20.04.2016 06:05 0,0 C -0,4 C 88 % 1024,3 hPa 0,0 mm 0,3 km/h (0 Bft) O-NO 67 0 min -1,7 C 0,0 km/h (0 Bft)
20.04.2016 06:10 0,0 C -0,4 C 88 % 1024,4 hPa 0,0 mm 0,0 km/h (0 Bft) O-NO 67 0 min -1,7 C 0,0 km/h (0 Bft)
20.04.2016 06:15 0,0 C -0,5 C 88 % 1024,4 hPa 0,0 mm 0,0 km/h (0 Bft) NO 45 0 min -1,7 C 0,0 km/h (0 Bft)
20.04.2016 06:20 -0,3 C -0,7 C 88 % 1024,4 hPa 0,0 mm 0,0 km/h (0 Bft) O-NO 67 0 min -2,0 C 0,0 km/h (0 Bft)
20.04.2016 06:25 0,1 C -0,5 C 89 % 1024,4 hPa 0,0 mm 0,0 km/h (0 Bft) O-NO 67 0 min -1,5 C 0,0 km/h (0 Bft)
20.04.2016 06:30 -0,1 C -0,6 C 88 % 1024,6 hPa 0,0 mm 0,0 km/h (0 Bft) O 90 0 min -1,8 C 0,0 km/h (0 Bft)
20.04.2016 06:35 -0,1 C -0,6 C 89 % 1024,6 hPa 0,0 mm 0,0 km/h (0 Bft) SO 135 0 min -1,7 C 0,0 km/h (0 Bft)
20.04.2016 06:40 0,0 C -0,5 C 89 % 1024,6 hPa 0,0 mm 0,0 km/h (0 Bft) S-SW 202 0 min -1,6 C 0,0 km/h (0 Bft)
20.04.2016 06:45 -0,1 C -0,6 C 89 % 1024,6 hPa 0,0 mm 0,0 km/h (0 Bft) W 270 0 min -1,7 C 0,0 km/h (0 Bft)
20.04.2016 06:50 -0,1 C -0,6 C 89 % 1024,8 hPa 0,0 mm 0,0 km/h (0 Bft) N-NO 22 0 min -1,7 C 0,0 km/h (0 Bft)
20.04.2016 06:55 -0,1 C -0,5 C 89 % 1024,8 hPa 0,0 mm 0,0 km/h (0 Bft) W 270 0 min -1,7 C 0,0 km/h (0 Bft)
20.04.2016 07:00 -0,3 C -0,7 C 89 % 1024,8 hPa 0,0 mm 0,0 km/h (0 Bft) NW 315 0 min -1,9 C 0,0 km/h (0 Bft)
20.04.2016 07:05 -0,4 C -0,7 C 89 % 1024,8 hPa 0,0 mm 0,0 km/h (0 Bft) O 90 0 min -2,0 C 0,0 km/h (0 Bft)
20.04.2016 07:10 -0,2 C -0,6 C 89 % 1024,9 hPa 0,0 mm 0,0 km/h (0 Bft) O-NO 67 0 min -1,8 C 0,0 km/h (0 Bft)
20.04.2016 07:15 0,0 C -0,2 C 85 % 1024,9 hPa 0,0 mm 0,0 km/h (0 Bft) S 180 0 min -2,2 C 0,0 km/h (0 Bft)
20.04.2016 07:20 0,0 C 0,1 C 85 % 1024,9 hPa 0,0 mm 0,6 km/h (0 Bft) S 180 0 min -2,2 C 3,3 km/h (1 Bft)
20.04.2016 07:25 0,4 C 0,7 C 90 % 1024,9 hPa 0,0 mm 0,9 km/h (0 Bft) NW 315 0 min -1,0 C 0,0 km/h (0 Bft)
20.04.2016 07:30 0,4 C 1,2 C 90 % 1025,2 hPa 0,0 mm 0,9 km/h (0 Bft) N-NW 337 0 min -1,0 C 0,0 km/h (0 Bft)
20.04.2016 07:35 0,5 C 3,9 C 90 % 1025,2 hPa 0,0 mm 0,0 km/h (0 Bft) S-SO 157 5 min -0,9 C 0,0 km/h (0 Bft)
20.04.2016 07:38 0,6 C 4,6 C 86 % 1025,2 hPa 0,0 mm 0,0 km/h (0 Bft) NW 315 3 min -1,5 C 0,0 km/h (0 Bft)
20.04.2016 07:40 0,6 C 4,6 C 86 % 1025,2 hPa 0,0 mm 0,0 km/h (0 Bft) NW 315 2 min -1,5 C 0,0 km/h (0 Bft)
20.04.2016 07:45 0,9 C 6,7 C 86 % 1025,2 hPa 0,0 mm 0,0 km/h (0 Bft) W-NW 292 5 min -1,2 C 0,0 km/h (0 Bft)
20.04.2016 07:50 1,4 C 7,2 C 86 % 1025,1 hPa 0,0 mm 0,0 km/h (0 Bft) N-NO 22 5 min -0,7 C 0,0 km/h (0 Bft)
20.04.2016 07:55 2,6 C 9,6 C 86 % 1025,1 hPa 0,0 mm 0,0 km/h (0 Bft) O-NO 67 5 min 0,5 C 0,0 km/h (0 Bft)
20.04.2016 08:00 3,4 C 10,6 C 89 % 1025,1 hPa 0,0 mm 0,0 km/h (0 Bft) NO 45 5 min 1,8 C 0,0 km/h (0 Bft)
20.04.2016 08:05 3,8 C 11,7 C 89 % 1025,1 hPa 0,0 mm 0,0 km/h (0 Bft) O-NO 67 5 min 2,2 C 0,0 km/h (0 Bft)
20.04.2016 08:10 4,0 C 12,3 C 88 % 1024,9 hPa 0,0 mm 0,0 km/h (0 Bft) O-NO 67 5 min 2,2 C 0,0 km/h (0 Bft)
20.04.2016 08:15 4,6 C 13,4 C 87 % 1024,9 hPa 0,0 mm 0,0 km/h (0 Bft) O-NO 67 5 min 2,6 C 0,0 km/h (0 Bft)
20.04.2016 08:20 4,9 C 13,7 C 86 % 1024,9 hPa 0,0 mm 0,0 km/h (0 Bft) O 90 5 min 2,8 C 0,0 km/h (0 Bft)
20.04.2016 08:25 5,5 C 13,9 C 84 % 1024,9 hPa 0,0 mm 0,0 km/h (0 Bft) O-SO 112 5 min 3,0 C 0,0 km/h (0 Bft)
20.04.2016 08:30 5,7 C 14,2 C 84 % 1025,1 hPa 0,0 mm 0,0 km/h (0 Bft) O-SO 112 5 min 3,2 C 0,0 km/h (0 Bft)
20.04.2016 08:35 6,5 C 15,5 C 80 % 1025,1 hPa 0,0 mm 0,0 km/h (0 Bft) O-NO 67 5 min 3,3 C 0,0 km/h (0 Bft)
20.04.2016 08:40 6,9 C 15,8 C 79 % 1025,1 hPa 0,0 mm 0,0 km/h (0 Bft) N-NO 22 5 min 3,5 C 0,0 km/h (0 Bft)
20.04.2016 08:45 7,5 C 16,0 C 79 % 1025,1 hPa 0,0 mm 0,0 km/h (0 Bft) W-SW 247 5 min 4,1 C 0,0 km/h (0 Bft)
20.04.2016 08:50 7,6 C 16,0 C 78 % 1025,6 hPa 0,0 mm 0,0 km/h (0 Bft) O 90 5 min 4,0 C 0,0 km/h (0 Bft)
20.04.2016 08:55 8,0 C 16,2 C 76 % 1025,6 hPa 0,0 mm 0,0 km/h (0 Bft) NO 45 5 min 4,0 C 0,0 km/h (0 Bft)
20.04.2016 09:00 8,5 C 16,0 C 74 % 1025,6 hPa 0,0 mm 0,3 km/h (0 Bft) O-NO 67 5 min 4,1 C 4,2 km/h (1 Bft)
20.04.2016 09:05 8,4 C 15,5 C 74 % 1025,6 hPa 0,0 mm 2,7 km/h (1 Bft) O-NO 67 5 min 4,0 C 3,6 km/h (1 Bft)
20.04.2016 09:10 8,5 C 15,4 C 73 % 1026,0 hPa 0,0 mm 3,3 km/h (1 Bft) W-SW 247 5 min 3,9 C 4,5 km/h (1 Bft)
20.04.2016 09:15 8,5 C 14,9 C 71 % 1026,0 hPa 0,0 mm 5,4 km/h (1 Bft) N-NO 22 5 min 3,5 C 14,3 km/h (3 Bft)
20.04.2016 09:20 8,4 C 14,4 C 70 % 1026,0 hPa 0,0 mm 6,9 km/h (2 Bft) NO 45 5 min 3,3 C 8,6 km/h (2 Bft)
20.04.2016 09:25 8,4 C 13,9 C 69 % 1026,0 hPa 0,0 mm 8,6 km/h (2 Bft) O-NO 67 5 min 3,0 C 17,3 km/h (3 Bft)
20.04.2016 09:30 8,4 C 13,7 C 69 % 1026,6 hPa 0,0 mm 9,8 km/h (2 Bft) O-NO 67 5 min 3,0 C 20,9 km/h (4 Bft)
20.04.2016 09:35 8,3 C 12,4 C 68 % 1026,6 hPa 0,0 mm 12,8 km/h (3 Bft) NO 45 5 min 2,7 C 21,5 km/h (4 Bft)
20.04.2016 09:40 8,5 C 12,8 C 68 % 1026,6 hPa 0,0 mm 11,9 km/h (2 Bft) NO 45 5 min 2,9 C 10,7 km/h (2 Bft)
20.04.2016 09:45 8,6 C 13,2 C 67 % 1026,6 hPa 0,0 mm 10,7 km/h (2 Bft) O-NO 67 5 min 2,8 C 10,1 km/h (2 Bft)
20.04.2016 09:50 8,7 C 13,2 C 67 % 1026,9 hPa 0,0 mm 10,7 km/h (2 Bft) NO 45 5 min 2,9 C 11,3 km/h (2 Bft)
20.04.2016 09:55 8,7 C 12,8 C 65 % 1026,9 hPa 0,0 mm 12,2 km/h (2 Bft) NO 45 5 min 2,5 C 22,7 km/h (4 Bft)
20.04.2016 10:00 8,9 C 13,1 C 64 % 1026,9 hPa 0,0 mm 11,9 km/h (2 Bft) O-NO 67 5 min 2,5 C 13,1 km/h (3 Bft)
20.04.2016 10:05 9,0 C 13,4 C 64 % 1026,9 hPa 0,0 mm 10,4 km/h (2 Bft) O-NO 67 5 min 2,6 C 10,1 km/h (2 Bft)
20.04.2016 10:10 9,1 C 13,6 C 64 % 1027,3 hPa 0,0 mm 10,1 km/h (2 Bft) O-NO 67 5 min 2,7 C 12,8 km/h (3 Bft)
20.04.2016 10:15 9,2 C 13,8 C 63 % 1027,3 hPa 0,0 mm 10,1 km/h (2 Bft) NW 315 5 min 2,5 C 26,2 km/h (4 Bft)
20.04.2016 10:20 9,2 C 13,7 C 64 % 1027,3 hPa 0,0 mm 11,0 km/h (2 Bft) NO 45 5 min 2,8 C 8,9 km/h (2 Bft)
20.04.2016 10:25 9,2 C 13,2 C 63 % 1027,3 hPa 0,0 mm 12,5 km/h (3 Bft) O-NO 67 5 min 2,5 C 31,9 km/h (5 Bft)
20.04.2016 10:30 9,2 C 13,2 C 63 % 1027,7 hPa 0,0 mm 12,5 km/h (3 Bft) NO 45 5 min 2,5 C 10,1 km/h (2 Bft)
20.04.2016 10:35 9,7 C 14,1 C 63 % 1027,7 hPa 0,0 mm 10,7 km/h (2 Bft) O-NO 67 5 min 3,0 C 8,6 km/h (2 Bft)
20.04.2016 10:38 10,0 C 14,5 C 63 % 1027,7 hPa 0,0 mm 9,8 km/h (2 Bft) NO 45 3 min 3,3 C 17,0 km/h (3 Bft)
20.04.2016 10:41 10,0 C 14,5 C 63 % 1027,7 hPa 0,0 mm 9,8 km/h (2 Bft) NO 45 3 min 3,3 C 17,0 km/h (3 Bft)
20.04.2016 10:45 9,9 C 14,5 C 62 % 1027,7 hPa 0,0 mm 9,5 km/h (2 Bft) O-NO 67 4 min 3,0 C 13,1 km/h (3 Bft)
20.04.2016 10:50 10,1 C 14,6 C 62 % 1027,8 hPa 0,0 mm 9,5 km/h (2 Bft) S-SO 157 5 min 3,2 C 5,1 km/h (1 Bft)
20.04.2016 10:55 10,1 C 14,8 C 61 % 1027,8 hPa 0,0 mm 11,0 km/h (2 Bft) O-NO 67 5 min 2,9 C 15,2 km/h (3 Bft)
20.04.2016 11:00 10,6 C 15,1 C 63 % 1027,8 hPa 0,0 mm 9,8 km/h (2 Bft) O-NO 67 5 min 3,9 C 12,8 km/h (3 Bft)
20.04.2016 11:05 10,6 C 15,0 C 61 % 1027,8 hPa 0,0 mm 10,4 km/h (2 Bft) NO 45 5 min 3,4 C 15,8 km/h (3 Bft)
20.04.2016 11:10 10,5 C 14,9 C 60 % 1028,2 hPa 0,0 mm 10,4 km/h (2 Bft) NO 45 5 min 3,1 C 18,8 km/h (3 Bft)
20.04.2016 11:15 10,8 C 14,9 C 60 % 1028,2 hPa 0,0 mm 12,5 km/h (3 Bft) O-NO 67 5 min 3,4 C 12,8 km/h (3 Bft)
20.04.2016 11:20 11,1 C 15,0 C 60 % 1028,2 hPa 0,0 mm 11,9 km/h (2 Bft) NW 315 5 min 3,6 C 12,2 km/h (2 Bft)
20.04.2016 11:25 11,0 C 15,0 C 59 % 1028,2 hPa 0,0 mm 12,2 km/h (2 Bft) O-NO 67 5 min 3,3 C 27,4 km/h (4 Bft)
20.04.2016 11:30 11,0 C 14,8 C 59 % 1028,1 hPa 0,0 mm 13,4 km/h (3 Bft) NO 45 5 min 3,3 C 21,8 km/h (4 Bft)
20.04.2016 11:35 11,1 C 15,1 C 59 % 1028,1 hPa 0,0 mm 13,1 km/h (3 Bft) NO 45 5 min 3,4 C 21,5 km/h (4 Bft)
20.04.2016 11:40 11,3 C 15,2 C 59 % 1028,1 hPa 0,0 mm 10,1 km/h (2 Bft) N-NO 22 0 min 3,6 C 10,4 km/h (2 Bft)
20.04.2016 11:45 11,4 C 15,6 C 58 % 1028,1 hPa 0,0 mm 10,7 km/h (2 Bft) NO 45 5 min 3,4 C 14,9 km/h (3 Bft)
20.04.2016 11:50 11,3 C 15,6 C 58 % 1028,1 hPa 0,0 mm 9,5 km/h (2 Bft) O-NO 67 5 min 3,3 C 5,4 km/h (1 Bft)
20.04.2016 11:55 11,5 C 15,8 C 58 % 1028,1 hPa 0,0 mm 10,4 km/h (2 Bft) NO 45 5 min 3,5 C 19,7 km/h (3 Bft)
20.04.2016 12:00 11,6 C 15,8 C 58 % 1028,1 hPa 0,0 mm 11,0 km/h (2 Bft) NO 45 5 min 3,6 C 15,8 km/h (3 Bft)
20.04.2016 12:05 11,7 C 15,9 C 57 % 1028,1 hPa 0,0 mm 11,9 km/h (2 Bft) O 90 5 min 3,5 C 16,7 km/h (3 Bft)
20.04.2016 12:10 11,7 C 15,7 C 57 % 1028,3 hPa 0,0 mm 11,9 km/h (2 Bft) O-NO 67 5 min 3,5 C 19,1 km/h (3 Bft)
20.04.2016 12:15 11,7 C 15,9 C 57 % 1028,3 hPa 0,0 mm 10,7 km/h (2 Bft) O-NO 67 5 min 3,5 C 15,2 km/h (3 Bft)
20.04.2016 12:20 11,9 C 16,1 C 57 % 1028,3 hPa 0,0 mm 8,9 km/h (2 Bft) O-NO 67 5 min 3,7 C 6,6 km/h (2 Bft)
20.04.2016 12:25 12,0 C 16,5 C 57 % 1028,3 hPa 0,0 mm 8,9 km/h (2 Bft) N 360 5 min 3,8 C 9,5 km/h (2 Bft)
20.04.2016 12:30 11,9 C 16,4 C 57 % 1028,2 hPa 0,0 mm 8,9 km/h (2 Bft) O-NO 67 5 min 3,7 C 15,2 km/h (3 Bft)
20.04.2016 12:35 11,9 C 15,8 C 56 % 1028,2 hPa 0,0 mm 11,3 km/h (2 Bft) O-NO 67 5 min 3,4 C 12,2 km/h (2 Bft)
20.04.2016 12:40 12,2 C 16,2 C 57 % 1028,2 hPa 0,0 mm 8,3 km/h (2 Bft) N-NW 337 0 min 3,9 C 0,0 km/h (0 Bft)
20.04.2016 12:45 12,6 C 16,0 C 56 % 1028,2 hPa 0,0 mm 6,9 km/h (2 Bft) NO 45 5 min 4,1 C 10,7 km/h (2 Bft)
20.04.2016 12:50 12,5 C 15,5 C 56 % 1027,9 hPa 0,0 mm 7,5 km/h (2 Bft) N-NO 22 0 min 4,0 C 9,5 km/h (2 Bft)
20.04.2016 12:55 12,6 C 14,5 C 56 % 1027,9 hPa 0,0 mm 10,7 km/h (2 Bft) N-NW 337 0 min 4,1 C 6,6 km/h (2 Bft)
20.04.2016 13:00 13,0 C 14,7 C 56 % 1027,9 hPa 0,0 mm 9,8 km/h (2 Bft) O-SO 112 0 min 4,4 C 10,1 km/h (2 Bft)
20.04.2016 13:05 13,0 C 15,3 C 55 % 1027,9 hPa 0,0 mm 8,9 km/h (2 Bft) N-NO 22 0 min 4,2 C 13,1 km/h (3 Bft)
20.04.2016 13:10 13,0 C 15,6 C 55 % 1027,9 hPa 0,0 mm 10,4 km/h (2 Bft) O-NO 67 0 min 4,2 C 17,9 km/h (3 Bft)
20.04.2016 13:15 13,0 C 16,1 C 55 % 1027,9 hPa 0,0 mm 13,1 km/h (3 Bft) N-NO 22 0 min 4,2 C 18,5 km/h (3 Bft)
20.04.2016 13:20 13,1 C 16,3 C 54 % 1027,9 hPa 0,0 mm 12,2 km/h (2 Bft) O-NO 67 0 min 4,0 C 9,8 km/h (2 Bft)
20.04.2016 13:25 13,1 C 16,5 C 54 % 1027,9 hPa 0,0 mm 12,5 km/h (3 Bft) O-NO 67 0 min 4,0 C 20,9 km/h (4 Bft)
20.04.2016 13:30 12,9 C 16,3 C 55 % 1027,5 hPa 0,0 mm 12,5 km/h (3 Bft) O 90 0 min 4,1 C 11,3 km/h (2 Bft)
20.04.2016 13:35 13,0 C 16,5 C 54 % 1027,5 hPa 0,0 mm 13,1 km/h (3 Bft) O-NO 67 0 min 3,9 C 16,1 km/h (3 Bft)
20.04.2016 13:40 13,0 C 16,4 C 54 % 1027,5 hPa 0,0 mm 12,2 km/h (2 Bft) NO 45 0 min 3,9 C 17,0 km/h (3 Bft)
20.04.2016 13:42 13,0 C 16,4 C 54 % 1027,5 hPa 0,0 mm 12,2 km/h (2 Bft) NO 45 0 min 3,9 C 17,0 km/h (3 Bft)
20.04.2016 13:45 13,1 C 16,6 C 54 % 1027,5 hPa 0,0 mm 11,6 km/h (2 Bft) N 360 0 min 4,0 C 14,3 km/h (3 Bft)
20.04.2016 13:50 13,4 C 16,9 C 55 % 1027,1 hPa 0,0 mm 10,7 km/h (2 Bft) O-SO 112 0 min 4,5 C 8,9 km/h (2 Bft)
20.04.2016 13:55 13,4 C 17,2 C 53 % 1027,1 hPa 0,0 mm 9,5 km/h (2 Bft) O-NO 67 5 min 4,0 C 12,5 km/h (3 Bft)
20.04.2016 14:00 13,5 C 17,2 C 53 % 1027,1 hPa 0,0 mm 11,0 km/h (2 Bft) N-NO 22 0 min 4,1 C 21,5 km/h (4 Bft)
20.04.2016 14:05 13,6 C 17,5 C 53 % 1027,1 hPa 0,0 mm 10,4 km/h (2 Bft) N-NW 337 0 min 4,2 C 7,2 km/h (2 Bft)
20.04.2016 14:10 13,6 C 17,6 C 53 % 1026,9 hPa 0,0 mm 10,7 km/h (2 Bft) N-NO 22 0 min 4,2 C 11,0 km/h (2 Bft)
20.04.2016 14:15 13,7 C 17,3 C 52 % 1026,9 hPa 0,0 mm 11,9 km/h (2 Bft) W-SW 247 0 min 4,0 C 11,3 km/h (2 Bft)
20.04.2016 14:20 13,9 C 17,6 C 52 % 1026,9 hPa 0,0 mm 11,0 km/h (2 Bft) NW 315 0 min 4,2 C 11,9 km/h (2 Bft)
20.04.2016 14:25 13,8 C 17,5 C 51 % 1026,9 hPa 0,0 mm 12,5 km/h (3 Bft) N-NO 22 0 min 3,8 C 19,4 km/h (3 Bft)
20.04.2016 14:30 13,9 C 17,5 C 52 % 1026,9 hPa 0,0 mm 11,6 km/h (2 Bft) N 360 0 min 4,2 C 11,0 km/h (2 Bft)
20.04.2016 14:35 14,1 C 17,9 C 50 % 1026,9 hPa 0,0 mm 10,1 km/h (2 Bft) O-SO 112 0 min 3,8 C 14,3 km/h (3 Bft)
20.04.2016 14:40 14,1 C 18,1 C 50 % 1026,9 hPa 0,0 mm 10,4 km/h (2 Bft) NO 45 0 min 3,8 C 16,4 km/h (3 Bft)
20.04.2016 14:45 14,3 C 18,1 C 51 % 1026,9 hPa 0,0 mm 10,4 km/h (2 Bft) N-NO 22 0 min 4,3 C 15,8 km/h (3 Bft)
20.04.2016 14:50 14,3 C 18,2 C 51 % 1026,7 hPa 0,0 mm 11,0 km/h (2 Bft) O 90 5 min 4,3 C 9,5 km/h (2 Bft)
20.04.2016 14:55 14,1 C 18,1 C 51 % 1026,7 hPa 0,0 mm 9,8 km/h (2 Bft) O-SO 112 5 min 4,1 C 6,6 km/h (2 Bft)
20.04.2016 15:00 14,5 C 18,5 C 51 % 1026,7 hPa 0,0 mm 8,6 km/h (2 Bft) O-NO 67 0 min 4,5 C 16,4 km/h (3 Bft)
20.04.2016 15:05 14,5 C 18,7 C 50 % 1026,7 hPa 0,0 mm 8,0 km/h (2 Bft) O-NO 67 5 min 4,2 C 15,5 km/h (3 Bft)
20.04.2016 15:10 14,5 C 18,6 C 50 % 1026,4 hPa 0,0 mm 9,2 km/h (2 Bft) NO 45 5 min 4,2 C 11,3 km/h (2 Bft)
20.04.2016 15:15 14,6 C 18,8 C 50 % 1026,4 hPa 0,0 mm 8,3 km/h (2 Bft) O-NO 67 5 min 4,3 C 11,3 km/h (2 Bft)
20.04.2016 15:20 14,5 C 19,1 C 50 % 1026,4 hPa 0,0 mm 6,0 km/h (2 Bft) O-NO 67 5 min 4,2 C 8,9 km/h (2 Bft)
20.04.2016 15:25 14,5 C 18,9 C 49 % 1026,4 hPa 0,0 mm 8,6 km/h (2 Bft) N-NO 22 5 min 3,9 C 6,9 km/h (2 Bft)
20.04.2016 15:30 14,5 C 19,0 C 49 % 1025,9 hPa 0,0 mm 7,7 km/h (2 Bft) O-NO 67 5 min 3,9 C 7,5 km/h (2 Bft)
20.04.2016 15:35 14,5 C 18,8 C 48 % 1025,9 hPa 0,0 mm 9,5 km/h (2 Bft) O 90 5 min 3,6 C 5,1 km/h (1 Bft)
20.04.2016 15:40 14,5 C 18,7 C 48 % 1025,9 hPa 0,0 mm 10,7 km/h (2 Bft) NO 45 5 min 3,6 C 16,4 km/h (3 Bft)
20.04.2016 15:45 14,6 C 18,8 C 48 % 1025,9 hPa 0,0 mm 8,0 km/h (2 Bft) NO 45 5 min 3,7 C 25,6 km/h (4 Bft)
20.04.2016 15:50 14,5 C 18,9 C 47 % 1025,7 hPa 0,0 mm 9,5 km/h (2 Bft) NO 45 5 min 3,3 C 18,5 km/h (3 Bft)
20.04.2016 15:55 14,5 C 18,3 C 47 % 1025,7 hPa 0,0 mm 12,2 km/h (2 Bft) O-SO 112 5 min 3,3 C 14,3 km/h (3 Bft)
20.04.2016 16:00 14,5 C 18,1 C 47 % 1025,7 hPa 0,0 mm 11,9 km/h (2 Bft) O-NO 67 5 min 3,3 C 9,2 km/h (2 Bft)
20.04.2016 16:05 14,4 C 18,3 C 47 % 1025,7 hPa 0,0 mm 9,5 km/h (2 Bft) O 90 5 min 3,2 C 9,5 km/h (2 Bft)
20.04.2016 16:10 14,5 C 18,5 C 48 % 1025,4 hPa 0,0 mm 8,3 km/h (2 Bft) SW 225 5 min 3,6 C 0,0 km/h (0 Bft)
20.04.2016 16:15 14,5 C 19,3 C 47 % 1025,4 hPa 0,0 mm 7,2 km/h (2 Bft) N-NO 22 5 min 3,3 C 14,9 km/h (3 Bft)
20.04.2016 16:20 14,4 C 18,9 C 45 % 1025,4 hPa 0,0 mm 9,8 km/h (2 Bft) NO 45 5 min 2,6 C 6,9 km/h (2 Bft)
20.04.2016 16:25 14,4 C 18,7 C 46 % 1025,4 hPa 0,0 mm 10,7 km/h (2 Bft) NO 45 5 min 2,9 C 16,7 km/h (3 Bft)
20.04.2016 16:30 14,4 C 18,6 C 47 % 1025,1 hPa 0,0 mm 9,8 km/h (2 Bft) NO 45 5 min 3,2 C 6,9 km/h (2 Bft)
20.04.2016 16:35 14,4 C 18,8 C 46 % 1025,1 hPa 0,0 mm 9,5 km/h (2 Bft) O-NO 67 5 min 2,9 C 10,4 km/h (2 Bft)
20.04.2016 16:40 14,3 C 18,8 C 46 % 1025,1 hPa 0,0 mm 10,7 km/h (2 Bft) O-NO 67 5 min 2,8 C 14,9 km/h (3 Bft)
20.04.2016 16:43 14,2 C 18,1 C 46 % 1025,1 hPa 0,0 mm 11,0 km/h (2 Bft) O-NO 67 3 min 2,8 C 11,3 km/h (2 Bft)
20.04.2016 16:45 14,2 C 18,1 C 46 % 1025,1 hPa 0,0 mm 11,0 km/h (2 Bft) O-NO 67 2 min 2,8 C 11,3 km/h (2 Bft)
20.04.2016 16:50 14,1 C 17,8 C 46 % 1025,1 hPa 0,0 mm 11,3 km/h (2 Bft) O-NO 67 5 min 2,7 C 11,0 km/h (2 Bft)
20.04.2016 16:55 14,0 C 16,7 C 45 % 1025,1 hPa 0,0 mm 9,8 km/h (2 Bft) N-NO 22 0 min 2,3 C 12,5 km/h (3 Bft)
20.04.2016 17:00 14,0 C 16,4 C 46 % 1025,1 hPa 0,0 mm 10,4 km/h (2 Bft) O-NO 67 0 min 2,6 C 11,3 km/h (2 Bft)
20.04.2016 17:05 14,0 C 16,4 C 46 % 1025,1 hPa 0,0 mm 11,0 km/h (2 Bft) O-NO 67 0 min 2,6 C 14,6 km/h (3 Bft)
20.04.2016 17:10 13,9 C 16,4 C 45 % 1024,9 hPa 0,0 mm 10,1 km/h (2 Bft) O-NO 67 0 min 2,2 C 3,9 km/h (1 Bft)
20.04.2016 17:15 13,8 C 15,9 C 45 % 1024,9 hPa 0,0 mm 11,9 km/h (2 Bft) O-NO 67 0 min 2,1 C 8,6 km/h (2 Bft)
20.04.2016 17:20 13,9 C 15,7 C 46 % 1024,9 hPa 0,0 mm 11,3 km/h (2 Bft) O-NO 67 0 min 2,5 C 10,7 km/h (2 Bft)
20.04.2016 17:25 13,9 C 15,3 C 46 % 1024,9 hPa 0,0 mm 9,8 km/h (2 Bft) O-NO 67 0 min 2,5 C 17,0 km/h (3 Bft)
20.04.2016 17:30 13,8 C 15,2 C 46 % 1024,8 hPa 0,0 mm 10,7 km/h (2 Bft) NO 45 0 min 2,4 C 15,2 km/h (3 Bft)
20.04.2016 17:35 13,7 C 14,7 C 45 % 1024,8 hPa 0,0 mm 13,1 km/h (3 Bft) O-NO 67 0 min 2,0 C 16,4 km/h (3 Bft)
20.04.2016 17:40 13,6 C 14,6 C 45 % 1024,8 hPa 0,0 mm 11,9 km/h (2 Bft) O-NO 67 0 min 1,9 C 15,8 km/h (3 Bft)
20.04.2016 17:45 13,6 C 14,7 C 45 % 1024,8 hPa 0,0 mm 11,0 km/h (2 Bft) N-NO 22 0 min 1,9 C 9,5 km/h (2 Bft)
20.04.2016 17:50 13,6 C 14,7 C 45 % 1024,9 hPa 0,0 mm 11,0 km/h (2 Bft) O-NO 67 0 min 1,9 C 15,5 km/h (3 Bft)
20.04.2016 17:55 13,5 C 14,4 C 45 % 1024,9 hPa 0,0 mm 9,8 km/h (2 Bft) N-NO 22 0 min 1,8 C 11,6 km/h (2 Bft)
20.04.2016 18:00 13,6 C 14,6 C 45 % 1024,9 hPa 0,0 mm 10,4 km/h (2 Bft) NO 45 0 min 1,9 C 16,4 km/h (3 Bft)
20.04.2016 18:05 13,5 C 14,5 C 46 % 1024,9 hPa 0,0 mm 10,4 km/h (2 Bft) O-NO 67 0 min 2,1 C 17,3 km/h (3 Bft)
20.04.2016 18:10 13,5 C 14,5 C 46 % 1024,6 hPa 0,0 mm 11,0 km/h (2 Bft) O-NO 67 0 min 2,1 C 17,6 km/h (3 Bft)
20.04.2016 18:15 13,5 C 14,5 C 46 % 1024,6 hPa 0,0 mm 11,3 km/h (2 Bft) N-NO 22 0 min 2,1 C 13,4 km/h (3 Bft)
20.04.2016 18:20 13,4 C 14,7 C 46 % 1024,6 hPa 0,0 mm 9,8 km/h (2 Bft) N-NO 22 0 min 2,0 C 8,9 km/h (2 Bft)
20.04.2016 18:25 13,3 C 14,8 C 46 % 1024,6 hPa 0,0 mm 10,1 km/h (2 Bft) N 360 0 min 1,9 C 18,5 km/h (3 Bft)
20.04.2016 18:30 13,3 C 14,9 C 46 % 1024,8 hPa 0,0 mm 10,7 km/h (2 Bft) NO 45 0 min 1,9 C 23,8 km/h (4 Bft)
20.04.2016 18:35 13,0 C 14,9 C 46 % 1024,8 hPa 0,0 mm 11,3 km/h (2 Bft) NO 45 0 min 1,7 C 13,4 km/h (3 Bft)
20.04.2016 18:40 13,0 C 15,0 C 46 % 1024,8 hPa 0,0 mm 10,4 km/h (2 Bft) N-NO 22 0 min 1,7 C 13,1 km/h (3 Bft)
20.04.2016 18:45 13,0 C 14,4 C 46 % 1024,8 hPa 0,0 mm 10,4 km/h (2 Bft) NO 45 0 min 1,7 C 9,8 km/h (2 Bft)
20.04.2016 18:50 13,0 C 14,3 C 47 % 1024,4 hPa 0,0 mm 9,8 km/h (2 Bft) NO 45 0 min 2,0 C 7,5 km/h (2 Bft)
20.04.2016 18:55 12,9 C 14,1 C 46 % 1024,4 hPa 0,0 mm 10,4 km/h (2 Bft) N-NW 337 0 min 1,6 C 11,6 km/h (2 Bft)
20.04.2016 19:00 12,9 C 14,3 C 46 % 1024,4 hPa 0,0 mm 10,7 km/h (2 Bft) NO 45 0 min 1,6 C 11,9 km/h (2 Bft)
20.04.2016 19:05 12,8 C 14,3 C 47 % 1024,4 hPa 0,0 mm 8,6 km/h (2 Bft) NO 45 0 min 1,8 C 10,1 km/h (2 Bft)
20.04.2016 19:10 12,7 C 14,3 C 47 % 1024,4 hPa 0,0 mm 9,2 km/h (2 Bft) SO 135 0 min 1,7 C 18,2 km/h (3 Bft)
20.04.2016 19:15 12,6 C 14,3 C 48 % 1024,4 hPa 0,0 mm 8,9 km/h (2 Bft) O-NO 67 0 min 1,9 C 11,0 km/h (2 Bft)
20.04.2016 19:20 12,5 C 14,4 C 49 % 1024,4 hPa 0,0 mm 7,5 km/h (2 Bft) O-SO 112 0 min 2,1 C 4,8 km/h (1 Bft)
20.04.2016 19:25 12,3 C 14,1 C 49 % 1024,4 hPa 0,0 mm 7,7 km/h (2 Bft) NO 45 0 min 1,9 C 11,0 km/h (2 Bft)
20.04.2016 19:30 12,2 C 14,0 C 49 % 1024,2 hPa 0,0 mm 7,5 km/h (2 Bft) O-NO 67 0 min 1,8 C 8,0 km/h (2 Bft)
20.04.2016 19:35 11,8 C 13,8 C 49 % 1024,2 hPa 0,0 mm 6,9 km/h (2 Bft) N-NO 22 0 min 1,4 C 10,1 km/h (2 Bft)
20.04.2016 19:40 11,5 C 13,7 C 51 % 1024,2 hPa 0,0 mm 4,8 km/h (1 Bft) O-NO 67 5 min 1,7 C 6,0 km/h (2 Bft)
20.04.2016 19:43 11,1 C 13,1 C 52 % 1024,2 hPa 0,0 mm 2,1 km/h (1 Bft) O-SO 112 0 min 1,6 C 0,0 km/h (0 Bft)
20.04.2016 19:44 11,1 C 13,1 C 52 % 1024,2 hPa 0,0 mm 2,1 km/h (1 Bft) O-SO 112 0 min 1,6 C 0,0 km/h (0 Bft)
20.04.2016 19:45 11,1 C 13,1 C 52 % 1024,2 hPa 0,0 mm 2,1 km/h (1 Bft) O-SO 112 0 min 1,6 C 0,0 km/h (0 Bft)
20.04.2016 19:50 10,9 C 13,1 C 53 % 1024,5 hPa 0,0 mm 1,5 km/h (1 Bft) NO 45 5 min 1,7 C 6,3 km/h (2 Bft)
20.04.2016 19:55 10,3 C 12,0 C 53 % 1024,5 hPa 0,0 mm 0,3 km/h (0 Bft) O-SO 112 0 min 1,1 C 0,0 km/h (0 Bft)
20.04.2016 20:00 10,1 C 11,4 C 54 % 1024,5 hPa 0,0 mm 0,0 km/h (0 Bft) O-SO 112 0 min 1,2 C 0,0 km/h (0 Bft)
20.04.2016 20:05 10,1 C 10,5 C 55 % 1024,5 hPa 0,0 mm 0,6 km/h (0 Bft) S-SO 157 0 min 1,5 C 4,8 km/h (1 Bft)
20.04.2016 20:10 9,9 C 10,3 C 56 % 1024,4 hPa 0,0 mm 0,3 km/h (0 Bft) O-SO 112 0 min 1,5 C 0,0 km/h (0 Bft)
20.04.2016 20:15 9,6 C 9,6 C 56 % 1024,4 hPa 0,0 mm 1,2 km/h (1 Bft) SO 135 0 min 1,3 C 0,0 km/h (0 Bft)
20.04.2016 20:20 9,4 C 9,2 C 56 % 1024,4 hPa 0,0 mm 1,5 km/h (1 Bft) SO 135 0 min 1,1 C 3,9 km/h (1 Bft)
20.04.2016 20:25 9,1 C 8,9 C 57 % 1024,4 hPa 0,0 mm 1,8 km/h (1 Bft) S 180 0 min 1,0 C 3,9 km/h (1 Bft)
20.04.2016 20:30 8,9 C 8,8 C 58 % 1024,4 hPa 0,0 mm 2,1 km/h (1 Bft) SO 135 0 min 1,1 C 3,6 km/h (1 Bft)
20.04.2016 20:35 8,6 C 8,3 C 58 % 1024,4 hPa 0,0 mm 1,2 km/h (1 Bft) S 180 0 min 0,8 C 3,0 km/h (1 Bft)
20.04.2016 20:40 8,5 C 8,2 C 58 % 1024,4 hPa 0,0 mm 1,2 km/h (1 Bft) SO 135 0 min 0,7 C 4,2 km/h (1 Bft)
20.04.2016 20:45 8,3 C 8,0 C 59 % 1024,4 hPa 0,0 mm 1,2 km/h (1 Bft) O-SO 112 0 min 0,8 C 0,0 km/h (0 Bft)
20.04.2016 20:50 8,2 C 7,9 C 59 % 1024,4 hPa 0,0 mm 0,9 km/h (0 Bft) S-SO 157 0 min 0,7 C 0,0 km/h (0 Bft)
20.04.2016 20:55 7,4 C 7,2 C 59 % 1024,4 hPa 0,0 mm 0,0 km/h (0 Bft) O-SO 112 0 min -0,1 C 0,0 km/h (0 Bft)
20.04.2016 21:00 6,8 C 6,6 C 59 % 1024,4 hPa 0,0 mm 0,0 km/h (0 Bft) S 180 0 min -0,6 C 0,0 km/h (0 Bft)
20.04.2016 21:05 6,8 C 6,4 C 60 % 1024,4 hPa 0,0 mm 0,0 km/h (0 Bft) S 180 0 min -0,4 C 0,0 km/h (0 Bft)
20.04.2016 21:10 6,8 C 6,3 C 60 % 1024,5 hPa 0,0 mm 0,0 km/h (0 Bft) S 180 0 min -0,4 C 0,0 km/h (0 Bft)
20.04.2016 21:15 6,0 C 5,6 C 61 % 1024,5 hPa 0,0 mm 0,0 km/h (0 Bft) S 180 0 min -0,9 C 0,0 km/h (0 Bft)
20.04.2016 21:20 5,9 C 5,4 C 63 % 1024,5 hPa 0,0 mm 0,0 km/h (0 Bft) S 180 0 min -0,6 C 0,0 km/h (0 Bft)
20.04.2016 21:25 5,8 C 5,2 C 64 % 1024,5 hPa 0,0 mm 0,0 km/h (0 Bft) S 180 0 min -0,5 C 0,0 km/h (0 Bft)
20.04.2016 21:30 5,6 C 5,0 C 64 % 1024,7 hPa 0,0 mm 0,0 km/h (0 Bft) S 180 0 min -0,7 C 0,0 km/h (0 Bft)
20.04.2016 21:35 5,4 C 4,8 C 66 % 1024,7 hPa 0,0 mm 0,0 km/h (0 Bft) SO 135 0 min -0,4 C 0,0 km/h (0 Bft)
20.04.2016 21:40 5,2 C 4,6 C 66 % 1024,7 hPa 0,0 mm 0,0 km/h (0 Bft) SO 135 0 min -0,6 C 0,0 km/h (0 Bft)
20.04.2016 21:45 5,2 C 4,5 C 67 % 1024,7 hPa 0,0 mm 0,0 km/h (0 Bft) O-SO 112 0 min -0,4 C 0,0 km/h (0 Bft)
20.04.2016 21:50 5,1 C 4,5 C 67 % 1024,6 hPa 0,0 mm 0,0 km/h (0 Bft) O-NO 67 0 min -0,5 C 0,0 km/h (0 Bft)
20.04.2016 21:55 4,7 C 4,1 C 68 % 1024,6 hPa 0,0 mm 0,0 km/h (0 Bft) N-NW 337 0 min -0,7 C 0,0 km/h (0 Bft)
20.04.2016 22:00 4,6 C 4,0 C 68 % 1024,6 hPa 0,0 mm 0,0 km/h (0 Bft) N-NO 22 0 min -0,8 C 0,0 km/h (0 Bft)
20.04.2016 22:05 4,5 C 3,9 C 69 % 1024,6 hPa 0,0 mm 0,0 km/h (0 Bft) O 90 0 min -0,7 C 0,0 km/h (0 Bft)
20.04.2016 22:10 4,5 C 3,9 C 69 % 1024,6 hPa 0,0 mm 0,0 km/h (0 Bft) O 90 0 min -0,7 C 0,0 km/h (0 Bft)
20.04.2016 22:15 4,3 C 3,7 C 70 % 1024,6 hPa 0,0 mm 0,0 km/h (0 Bft) O 90 0 min -0,7 C 0,0 km/h (0 Bft)
20.04.2016 22:20 4,2 C 3,7 C 70 % 1024,6 hPa 0,0 mm 0,0 km/h (0 Bft) O-NO 67 0 min -0,8 C 0,0 km/h (0 Bft)
20.04.2016 22:25 3,9 C 3,4 C 71 % 1024,6 hPa 0,0 mm 0,0 km/h (0 Bft) N 360 0 min -0,9 C 0,0 km/h (0 Bft)
20.04.2016 22:30 3,9 C 3,4 C 71 % 1024,5 hPa 0,0 mm 0,0 km/h (0 Bft) N-NO 22 0 min -0,9 C 0,0 km/h (0 Bft)
20.04.2016 22:35 3,6 C 3,1 C 72 % 1024,5 hPa 0,0 mm 0,0 km/h (0 Bft) O-NO 67 0 min -1,0 C 0,0 km/h (0 Bft)
20.04.2016 22:40 3,5 C 3,0 C 72 % 1024,5 hPa 0,0 mm 0,0 km/h (0 Bft) O-SO 112 0 min -1,1 C 0,0 km/h (0 Bft)
20.04.2016 22:43 4,2 C 3,5 C 75 % 1024,5 hPa 0,0 mm 0,0 km/h (0 Bft) O-NO 67 0 min 0,2 C 0,0 km/h (0 Bft)
20.04.2016 22:45 4,2 C 3,5 C 75 % 1024,5 hPa 0,0 mm 0,0 km/h (0 Bft) O-NO 67 0 min 0,2 C 0,0 km/h (0 Bft)
20.04.2016 22:50 4,4 C 3,7 C 75 % 1024,2 hPa 0,0 mm 0,0 km/h (0 Bft) O 90 0 min 0,4 C 0,0 km/h (0 Bft)
20.04.2016 22:55 3,6 C 3,1 C 74 % 1024,2 hPa 0,0 mm 0,3 km/h (0 Bft) O 90 0 min -0,6 C 0,0 km/h (0 Bft)
20.04.2016 23:00 3,3 C 3,0 C 74 % 1024,2 hPa 0,0 mm 0,3 km/h (0 Bft) N-NW 337 0 min -0,9 C 0,0 km/h (0 Bft)
20.04.2016 23:05 3,0 C 2,7 C 73 % 1024,2 hPa 0,0 mm 0,0 km/h (0 Bft) NW 315 0 min -1,4 C 0,0 km/h (0 Bft)
20.04.2016 23:10 2,9 C 2,6 C 74 % 1024,1 hPa 0,0 mm 0,0 km/h (0 Bft) NO 45 0 min -1,3 C 0,0 km/h (0 Bft)
20.04.2016 23:15 2,9 C 2,4 C 75 % 1024,1 hPa 0,0 mm 0,0 km/h (0 Bft) N-NO 22 0 min -1,1 C 0,0 km/h (0 Bft)
20.04.2016 23:20 2,6 C 2,3 C 75 % 1024,1 hPa 0,0 mm 0,0 km/h (0 Bft) NW 315 0 min -1,4 C 0,0 km/h (0 Bft)
20.04.2016 23:25 2,5 C 2,2 C 76 % 1024,1 hPa 0,0 mm 0,0 km/h (0 Bft) NO 45 0 min -1,3 C 0,0 km/h (0 Bft)
20.04.2016 23:30 2,5 C 2,1 C 76 % 1023,9 hPa 0,0 mm 0,0 km/h (0 Bft) O-SO 112 0 min -1,3 C 0,0 km/h (0 Bft)
20.04.2016 23:35 2,3 C 2,0 C 76 % 1023,9 hPa 0,0 mm 0,0 km/h (0 Bft) S-SW 202 0 min -1,5 C 0,0 km/h (0 Bft)
20.04.2016 23:40 2,3 C 1,9 C 76 % 1023,9 hPa 0,0 mm 0,0 km/h (0 Bft) O-NO 67 0 min -1,5 C 0,0 km/h (0 Bft)
20.04.2016 23:45 2,3 C 2,0 C 76 % 1023,9 hPa 0,0 mm 0,0 km/h (0 Bft) S-SO 157 0 min -1,5 C 0,0 km/h (0 Bft)
20.04.2016 23:50 2,3 C 2,0 C 76 % 1023,9 hPa 0,0 mm 0,0 km/h (0 Bft) O-NO 67 0 min -1,5 C 0,0 km/h (0 Bft)
20.04.2016 23:55 2,1 C 1,8 C 77 % 1023,9 hPa 0,0 mm 0,0 km/h (0 Bft) NO 45 0 min -1,5 C 0,0 km/h (0 Bft)
_ Min-Zeit 07:05 07:05 18:00 23:55 - 23:55 - - - 07:20 23:55
Minimum _ -0,4 C -0,7 C 45 % 1023,9 hPa - 0,0 km/h (0 Bft) - - - -2,2 C 0,0 km/h (0 Bft)
_ Max-Zeit 15:45 16:15 07:35 12:25 23:55 11:30 - - 19:50 13:50 10:25
Maximum _ 14,6 C 19,3 C 90 % 1028,3 hPa 0,0 mm 13,4 km/h
NO (3 Bft)
- - 5 min 4,5 C 31,9 km/h
O-NO (5 Bft)
Durchschnitt _ 7,4 C 9,3 C 67 % 1025,4 hPa #0,0 mm 4,7 km/h (1 Bft) O-NO - #7:20 h 1,3 C 6,0 km/h (2 Bft)